User: anonymous   Login
Location: Hopkins Observatory
(42.6965°N, 73.1843°W)
Time: 06:03:57
(UTC-05:00)
Language:

RS-15 - Orbit

View from above orbital plane
View from above orbital plane
View from above satellite
View from above satellite

Ground track
Ground track

The orbit data is extracted from the following two-line orbital elements,

1 23439U 94085A   17349.91634921 -.00000072 +00000-0 -83054-3 0  9990
2 23439 064.8177 285.2380 0163173 214.5549 207.9696 11.27566502945906
Epoch (UTC): 15 December 2017 21:59:32
Eccentricity: 0.0163173
inclination: 64.8177°
perigee height: 1885 km
apogee height: 2159 km
right ascension of ascending node: 285.2380°
argument of perigee: 214.5549°
revolutions per day: 11.27566502
mean anomaly at epoch: 207.9696°
orbit number at epoch: 94590

The dashed part of the orbit path shows where the satellite is in the earth's shadow,  

DLR